[[{"header":{"parameterUnit":"m.s-1","parameterCategory":2,"la1":30.2991,"la2":30.254,"lo1":-89.0895,"lo2":-89.0444,"dy":0.0017,"dx":0.0017,"nx":28,"ny":28,"refTime":"2024-08-13T21:00:00:Z","depth":"0","parameterNumber":2,"parameterNumberName":"U-component_of_CURRENTS"},"data":[0,0,0,0,0,0,0,0,0,0,0,0,0,0,0,0,0,0,0,0,0,0,0,0,0,0,0,0,0,0,0,0,0,0,0,0,0,0,0,0,0,0,0,0,0,0,0,0,0,0,0,0,0,0,0,0,0,0,0.4103,0.4103,0,0.411,0.411,0.411,0.4124,0.4124,0.4125,0.4125,0.4078,0.4076,0.4074,0,0,0,0,0,0,0,0,0,0,0,0,0,0.4083,0.4084,0.4103,0.4103,0.4103,0.411,0.411,0.411,0.4124,0.4124,0.4125,0.4125,0.4078,0.4076,0.4074,0,0,0,0,0,0,0,0,0,0,0,0,0,0.4089,0.4084,0.4102,0.4113,0.4114,0.411,0.411,0.411,0.4123,0.4124,0.4125,0.4126,0.4079,0.4076,0.4074,0.4042,0,0,0.4066,0.4064,0,0,0,0,0,0,0,0,0.4088,0.4089,0.4111,0.4112,0.4114,0.4119,0.4086,0.4085,0.4123,0.4117,0.4125,0.4126,0.4088,0.4084,0.4081,0.4039,0.4037,0.4065,0.4064,0.4063,0.4062,0,0,0,0,0,0,0,0.4088,0.4089,0.4103,0.4111,0.4113,0.4112,0.4113,0.4086,0.4095,0.4118,0.4119,0.4124,0.4088,0.4083,0.408,0.4037,0.4065,0.4063,0.4061,0.406,0.399,0.399,0,0,0,0,0,0,0.4093,0.4088,0.4103,0.4103,0.4106,0.4112,0.4113,0.4114,0.4096,0.4095,0.4124,0.4125,0.4087,0.4083,0.4078,0.4021,0.4063,0.406,0.4059,0.3991,0.399,0.399,0,0,0,0,0,0,0.4092,0.4094,0.4102,0.4098,0.41,0.4112,0.4113,0.4114,0.4107,0.4102,0.41,0.4115,0.4088,0.4082,0.4049,0.402,0.4059,0.4057,0.3991,0.399,0.399,0.3918,0,0,0,0,0,0,0.4091,0.4093,0.409,0.4099,0.41,0.4087,0.4112,0.4114,0.4111,0.4112,0.4094,0.4091,0.4088,0.4053,0.4047,0.4017,0.4055,0.3991,0.3991,0.399,0.3921,0.3915,0.391,0,0,0,0,0,0.4091,0.4069,0.4089,0.4091,0.4097,0.4086,0.4085,0.4095,0.411,0.4094,0.409,0.4091,0.4046,0.405,0.4043,0.4011,0.3991,0.3991,0.399,0.3923,0.3916,0.3911,0,0,0,0,0,0,0.4035,0.4069,0.4091,0.4076,0.4082,0.4089,0.407,0.4088,0.4073,0.4071,0.4074,0.4069,0.4041,0.4037,0.4042,0.3996,0.4024,0.4021,0.3975,0.3969,0.3964,0.3971,0.4052,0,0,0,0,0,0.4029,0.4032,0.4059,0.4041,0.4043,0.4059,0.4056,0.4066,0.4061,0.4056,0.4046,0.4039,0.4032,0.4009,0.4006,0.3958,0.3978,0.3941,0.3935,0.3931,0.3935,0.3966,0.3964,0.3988,0.3988,0.3988,0,0,0.4001,0.4019,0.402,0.4032,0.4033,0.4015,0.4056,0.4041,0.4021,0.4049,0.4004,0.4022,0.4023,0.3986,0.3972,0.3973,0.3927,0.393,0.3925,0.3932,0.3965,0.3963,0.3961,0.3987,0.3987,0.3987,0,0,0.3942,0.3961,0.395,0.3952,0.3963,0.397,0.3966,0.3973,0.397,0.3942,0.397,0.3969,0.3936,0.3937,0.3933,0.3894,0.3914,0.3895,0.3847,0.3877,0.3875,0.3874,0.3859,0.3858,0.3873,0.3873,0.3873,0,0.391,0.3902,0.3937,0.392,0.3907,0.3946,0.3912,0.3911,0.3906,0.3898,0.3917,0.3912,0.3913,0.3884,0.3881,0.3879,0.3895,0.3864,0.3869,0.3869,0.3869,0.3855,0.3854,0.387,0.387,0.387,0.3871,0,0.3851,0.384,0.382,0.3821,0.3806,0.378,0.3791,0.3778,0.3788,0.3799,0.3789,0.381,0.3809,0.3812,0.3831,0.3827,0.3836,0.3872,0.3881,0.3862,0.3848,0.3848,0.3865,0.3866,0.3867,0.3868,0,0,0.3786,0.3787,0.3779,0.3762,0.3754,0.3731,0.3693,0.3676,0.3653,0.3673,0.3649,0.3666,0.3709,0.3713,0.3744,0.3769,0.3773,0.3817,0.382,0.3795,0.3813,0.3543,0.3518,0.3819,0.382,0.382,0.3788,0,0.373,0.3684,0.3697,0.3627,0.3595,0.361,0.3563,0.3553,0.3562,0.355,0.3598,0.3594,0.3659,0.3665,0.3702,0.3766,0.3778,0.3777,0.3843,0.3844,0.3601,0.3511,0.3303,0.3234,0.3789,0.3789,0.3789,0,0.3657,0.3644,0.3573,0.3531,0.3516,0.3477,0.3422,0.3399,0.3404,0.3414,0.3444,0.3493,0.3524,0.3598,0.3679,0.3679,0.3743,0.3795,0.3795,0.3573,0.3574,0.3352,0.3214,0.3137,0.379,0.379,0.379,0,0.3569,0.3542,0.3482,0.3467,0.3431,0.3392,0.3372,0.3351,0.3322,0.3343,0.3334,0.3393,0.3411,0.3518,0.3593,0.3658,0.367,0.377,0.3582,0.3564,0.341,0.3374,0.3197,0.3835,0.3835,0.3835,0.3835,0,0.3479,0.3422,0.3442,0.3399,0.3316,0.3323,0.3238,0.3232,0.3225,0.317,0.327,0.3238,0.3404,0.3424,0.354,0.3491,0.3616,0.3536,0.3523,0.337,0.3332,0.3279,0.3273,0.3834,0.3834,0.3834,0.3834,0,0.3334,0.3361,0.3283,0.3267,0.3259,0.3189,0.3146,0.3093,0.3116,0.3055,0.3058,0.3116,0.311,0.3207,0.3329,0.3354,0.325,0.3349,0.311,0.3065,0.279,0.2787,0.2519,0.2485,0.3143,0.3136,0.313,0,0.3239,0.3192,0.3169,0.3128,0.3108,0.3047,0.299,0.3012,0.2966,0.2954,0.2906,0.2895,0.283,0.2834,0.286,0.2891,0.2949,0.2727,0.2802,0.2675,0.2671,0.265,0.2647,0.2592,0.2582,0.2574,0.2567,0,0.305,0.305,0.3013,0.2938,0.2883,0.2817,0.2762,0.2721,0.2731,0.2681,0.2594,0.2551,0.2498,0.2371,0.235,0.2399,0.2513,0.2553,0.2525,0.2256,0.2127,0.2121,0.2704,0.2495,0.2502,0.2507,0.2511,0.2514,0.2899,0.283,0.2799,0.2701,0.2663,0.2568,0.2449,0.2423,0.2323,0.2179,0.2265,0.2086,0.2004,0.1918,0.1942,0.18,0.1974,0.1806,0.1828,0.1833,0.1712,0.2057,0.1757,0.176,0.1762,0.1765,0.1766,0,0.2649,0.2619,0.2553,0.2448,0.2337,0.2364,0.226,0.2123,0.1945,0.1859,0.1735,0.1495,0.1339,0.1334,0.1209,0.1134,0.1231,0.1111,0.1128,0.119,0.158,0.1466,0.0958,0.0958,0.0959,0.0959,0.0959,0.0959,0.2522,0.2386,0.2354,0.2136,0.2065,0.1853,0.1746,0.1595,0.1496,0.1204,0.1003,0.095,0.09,0.072,0.0622,0.0648,0.0715,0.0533,0.0703,0.1054,0.1127,0.1196,0.1088,0.051,0.0509,0.0285,0.0282,0.028]},{"header":{"parameterUnit":"m.s-1","parameterCategory":2,"la1":30.2991,"la2":30.254,"lo1":-89.0895,"lo2":-89.0444,"dy":0.0017,"dx":0.0017,"nx":28,"ny":28,"refTime":"2024-08-13T21:00:00:Z","depth":"0","parameterNumber":3,"parameterNumberName":"V-component_of_CURRENTS"},"data":[0,0,0,0,0,0,0,0,0,0,0,0,0,0,0,0,0,0,0,0,0,0,0,0,0,0,0,0,0,0,0,0,0,0,0,0,0,0,0,0,0,0,0,0,0,0,0,0,0,0,0,0,0,0,0,0,0,0,-0.0058,-0.0058,0,-0.0002,-0.0001,0.0,0.0032,0.0032,0.0031,0.0031,0.0219,0.0225,0.023,0,0,0,0,0,0,0,0,0,0,0,0,0,-0.0102,-0.0101,-0.0058,-0.0058,-0.0057,-0.0002,-0.0001,0.0,0.0032,0.0032,0.0031,0.0031,0.0218,0.0224,0.023,0,0,0,0,0,0,0,0,0,0,0,0,0,-0.0064,-0.0101,-0.0058,-0.0038,-0.0036,-0.0002,-0.0001,0.0001,0.0032,0.0032,0.0031,0.0031,0.0216,0.0223,0.0231,0.0287,0,0,0.0255,0.0259,0,0,0,0,0,0,0,0,-0.0066,-0.0062,-0.0041,-0.0039,-0.0037,0.0004,0.0052,0.0102,0.0032,0.001,0.0031,0.0031,0.0158,0.017,0.0185,0.0296,0.0304,0.0256,0.0261,0.0264,0.0266,0,0,0,0,0,0,0,-0.0069,-0.0064,-0.0032,-0.0041,-0.0038,-0.0019,-0.0014,0.0062,0.0091,0.0012,0.0014,0.0014,0.016,0.0177,0.019,0.0307,0.0256,0.0263,0.0268,0.0271,0.0505,0.0506,0,0,0,0,0,0,-0.0085,-0.0067,-0.0034,-0.0031,-0.0057,-0.0019,-0.0013,-0.0005,0.0087,0.0099,0.0014,0.0015,0.0164,0.0181,0.0197,0.03,0.0264,0.0271,0.0276,0.0503,0.0505,0.0507,0,0,0,0,0,0,-0.0086,-0.0083,-0.0036,-0.0051,-0.0044,-0.0018,-0.001,-0.0004,0.0012,0.0086,0.0101,0.0023,0.0165,0.0186,0.0272,0.0306,0.0275,0.0282,0.0501,0.0504,0.0506,0.0486,0,0,0,0,0,0,-0.0088,-0.0083,-0.008,-0.0052,-0.0044,-0.0015,-0.001,-0.0003,0.0011,0.0013,0.01,0.0117,0.0166,0.026,0.028,0.0316,0.0288,0.0499,0.0502,0.0505,0.0485,0.0487,0.0489,0,0,0,0,0,-0.0089,-0.0083,-0.008,-0.0076,-0.0042,-0.0015,-0.0008,0.0012,0.0011,0.0024,0.0085,0.0114,0.0292,0.0268,0.0291,0.033,0.0498,0.0502,0.0505,0.0484,0.0487,0.0489,0,0,0,0,0,0,-0.009,-0.0079,-0.0075,-0.0062,-0.0042,-0.0011,-0.0002,0.001,0.0065,0.007,0.0138,0.016,0.025,0.0292,0.0263,0.0405,0.0399,0.0407,0.0375,0.0379,0.0381,0.0365,0.0295,0,0,0,0,0,-0.0093,-0.0089,-0.007,-0.0058,-0.0053,-0.0029,-0.0016,-0.0002,0.0044,0.0065,0.0127,0.0201,0.0283,0.0328,0.0402,0.0482,0.0496,0.0522,0.0524,0.0525,0.0529,0.0581,0.0587,0.0518,0.0517,0.0517,0,0,-0.0089,-0.0084,-0.008,-0.0059,-0.0045,-0.0016,-0.0021,-0.0003,0.0036,0.0082,0.0158,0.0215,0.0305,0.0394,0.0438,0.0433,0.0548,0.053,0.053,0.0533,0.0585,0.0591,0.0597,0.052,0.0519,0.0519,0,0,-0.0075,-0.0077,-0.0067,-0.0051,-0.0035,-0.0014,-0.0011,0.0023,0.0049,0.0121,0.0169,0.0237,0.0357,0.0424,0.0476,0.0537,0.0558,0.0564,0.0569,0.0619,0.0624,0.063,0.0625,0.063,0.0565,0.0565,0.0565,0,-0.0068,-0.0049,-0.0057,-0.0038,-0.0018,-0.0013,0.002,0.0051,0.0114,0.0151,0.0145,0.0314,0.0375,0.0495,0.0509,0.0544,0.0554,0.0548,0.0619,0.0625,0.0631,0.0625,0.0631,0.0565,0.0565,0.0565,0.0565,0,-0.0041,-0.0023,-0.0016,0.0013,0.0033,0.0058,0.0091,0.0125,0.015,0.0188,0.0289,0.0359,0.0457,0.0487,0.0519,0.0604,0.059,0.0612,0.0604,0.0636,0.0628,0.0635,0.0564,0.0564,0.0564,0.0564,0,0,-0.0013,0.0001,0.0008,0.0032,0.0063,0.0088,0.0143,0.0206,0.0253,0.03,0.0375,0.048,0.0492,0.055,0.0595,0.0629,0.0658,0.063,0.0633,0.0609,0.0729,0.0708,0.0712,0.0692,0.0694,0.0696,0.0695,0,0.0024,0.0063,0.0063,0.0124,0.0157,0.0173,0.0228,0.028,0.0325,0.0395,0.045,0.0536,0.0526,0.057,0.0603,0.0669,0.068,0.0654,0.0716,0.0717,0.0683,0.0722,0.069,0.0687,0.0701,0.0702,0.0703,0,0.0078,0.0092,0.0147,0.0191,0.0205,0.0239,0.0321,0.0366,0.0449,0.0481,0.0545,0.0587,0.0663,0.0637,0.0719,0.0703,0.0706,0.0725,0.0727,0.0722,0.071,0.0667,0.0698,0.0721,0.0712,0.0712,0.0711,0,0.0137,0.0168,0.0212,0.0228,0.0271,0.0302,0.0328,0.04,0.0443,0.0532,0.0569,0.0656,0.0705,0.0738,0.0761,0.0749,0.0828,0.0824,0.0794,0.079,0.0784,0.0777,0.0836,0.0857,0.0857,0.0857,0.0857,0,0.021,0.0253,0.0237,0.0269,0.0315,0.0334,0.0399,0.0438,0.0501,0.0557,0.0606,0.0663,0.0732,0.0782,0.0786,0.0811,0.0847,0.0798,0.0804,0.0773,0.0766,0.0803,0.0827,0.0857,0.0857,0.0857,0.0857,0,0.03,0.0297,0.0336,0.0346,0.0351,0.0383,0.0411,0.0456,0.0506,0.058,0.0606,0.0687,0.0748,0.0791,0.0856,0.0844,0.0889,0.0859,0.0788,0.0787,0.0775,0.0799,0.0883,0.0931,0.083,0.083,0.0829,0,0.037,0.0388,0.0371,0.0369,0.0373,0.0403,0.0425,0.0464,0.0503,0.0589,0.0628,0.0704,0.0761,0.0834,0.084,0.0847,0.0883,0.0812,0.0791,0.0778,0.081,0.0836,0.0873,0.0755,0.0755,0.0754,0.0753,0,0.0461,0.0428,0.0422,0.04,0.0407,0.0429,0.0456,0.0487,0.054,0.0594,0.0663,0.0712,0.077,0.0791,0.0804,0.0801,0.0849,0.0797,0.0829,0.0798,0.0789,0.0836,0.0713,0.0748,0.0748,0.0749,0.0749,0.0749,0.0498,0.0477,0.0424,0.0407,0.0416,0.0439,0.0449,0.049,0.0543,0.06,0.0655,0.0703,0.0747,0.0765,0.0769,0.0759,0.0803,0.0748,0.0783,0.0813,0.0858,0.0696,0.0717,0.0718,0.0718,0.0718,0.0719,0,0.0505,0.0452,0.0433,0.04,0.04,0.0413,0.0452,0.0454,0.0498,0.0574,0.0617,0.0663,0.0695,0.0725,0.0729,0.0745,0.0774,0.0767,0.0802,0.0848,0.0732,0.0726,0.0698,0.0698,0.0698,0.0698,0.0698,0.0698,0.0499,0.0434,0.0396,0.0371,0.0365,0.0358,0.037,0.0393,0.0437,0.0484,0.0521,0.0563,0.0656,0.0731,0.0783,0.079,0.088,0.0843,0.0933,0.0833,0.0834,0.0835,0.0835,0.083,0.0831,0.1033,0.1034,0.1036]}],[{"header":{"parameterUnit":"m.s-1","parameterCategory":2,"la1":30.2991,"la2":30.254,"lo1":-89.0895,"lo2":-89.0444,"dy":0.0017,"dx":0.0017,"nx":28,"ny":28,"refTime":"2024-08-13T21:00:00:Z","depth":"2","parameterNumber":2,"parameterNumberName":"U-component_of_CURRENTS"},"data":[0,0,0,0,0,0,0,0,0,0,0,0,0,0,0,0,0,0,0,0,0,0,0,0,0,0,0,0,0,0,0,0,0,0,0,0,0,0,0,0,0,0,0,0,0,0,0,0,0,0,0,0,0,0,0,0,0,0,0.1803,0.1803,0,0.1854,0.1855,0.1855,0.1881,0.1881,0.1881,0.1881,0.2011,0.2014,0.2018,0,0,0,0,0,0,0,0,0,0,0,0,0,0.1761,0.1761,0.1803,0.1803,0.1804,0.1854,0.1855,0.1855,0.1881,0.1881,0.1881,0.1881,0.201,0.2014,0.2018,0,0,0,0,0,0,0,0,0,0,0,0,0,0.1791,0.1761,0.1803,0.1823,0.1826,0.1854,0.1855,0.1855,0.1881,0.1881,0.1881,0.1881,0.2009,0.2014,0.2019,0.2047,0,0,0.2034,0.2036,0,0,0,0,0,0,0,0,0.1789,0.1792,0.182,0.1822,0.1825,0.1862,0.1888,0.1924,0.1881,0.1859,0.1881,0.1881,0.1969,0.1977,0.1984,0.2053,0.2059,0.2035,0.2038,0.204,0.2041,0,0,0,0,0,0,0,0.1787,0.1791,0.1822,0.182,0.1824,0.1842,0.1846,0.1894,0.1913,0.1861,0.1863,0.187,0.1971,0.1979,0.1988,0.2061,0.2034,0.2039,0.2042,0.2044,0.2291,0.2294,0,0,0,0,0,0,0.1781,0.1788,0.182,0.1824,0.1808,0.1843,0.1847,0.1849,0.1911,0.192,0.187,0.1871,0.1971,0.1982,0.1993,0.2104,0.204,0.2045,0.2048,0.2287,0.2292,0.2295,0,0,0,0,0,0,0.1779,0.1783,0.1818,0.1808,0.1814,0.1843,0.1845,0.185,0.1883,0.1917,0.1928,0.1901,0.1971,0.1986,0.2068,0.2107,0.2047,0.2052,0.2283,0.2289,0.2294,0.228,0,0,0,0,0,0,0.1778,0.1782,0.1796,0.1808,0.1815,0.1851,0.1845,0.1851,0.1886,0.1889,0.1947,0.1958,0.1972,0.206,0.2073,0.2113,0.2055,0.2279,0.2286,0.2292,0.2276,0.2285,0.2292,0,0,0,0,0,0.1776,0.1791,0.1797,0.1802,0.1828,0.1852,0.1858,0.1878,0.1888,0.1907,0.1957,0.1957,0.2112,0.2067,0.2081,0.2123,0.2276,0.2284,0.2291,0.2273,0.2283,0.2291,0,0,0,0,0,0,0.1788,0.1796,0.1802,0.1821,0.1843,0.1857,0.188,0.1895,0.1946,0.1959,0.199,0.2006,0.2096,0.2125,0.2074,0.2222,0.2199,0.221,0.2181,0.2191,0.2198,0.2198,0.206,0,0,0,0,0,0.1795,0.1805,0.1819,0.1839,0.1849,0.1871,0.1889,0.1903,0.1941,0.1964,0.2008,0.2072,0.2136,0.2173,0.2232,0.2305,0.2331,0.2352,0.2359,0.2365,0.2381,0.2487,0.2504,0.2321,0.2321,0.2321,0,0,0.1807,0.1812,0.1821,0.1842,0.1859,0.1887,0.1883,0.1916,0.1951,0.1973,0.205,0.2099,0.2166,0.2246,0.229,0.2274,0.242,0.2375,0.2378,0.2392,0.2497,0.2514,0.253,0.2327,0.2326,0.2325,0,0,0.1837,0.1839,0.1863,0.1881,0.191,0.1916,0.1932,0.1966,0.1993,0.2063,0.2099,0.2171,0.2266,0.2314,0.2351,0.2445,0.2459,0.248,0.2511,0.2613,0.2628,0.2642,0.2634,0.2647,0.2481,0.2481,0.2481,0,0.1859,0.1887,0.1877,0.1908,0.1934,0.1933,0.1976,0.1995,0.2058,0.2093,0.2095,0.2258,0.2296,0.2403,0.2433,0.2457,0.2494,0.2455,0.2618,0.2633,0.2647,0.2637,0.2651,0.2481,0.2481,0.2481,0.2481,0,0.1909,0.1938,0.1954,0.1985,0.2005,0.2043,0.206,0.2093,0.2122,0.215,0.2262,0.2323,0.2431,0.2447,0.2464,0.2596,0.2577,0.2609,0.2578,0.2664,0.2647,0.2663,0.2482,0.2481,0.2481,0.2481,0,0,0.197,0.1985,0.2005,0.2028,0.2056,0.208,0.2121,0.2169,0.2221,0.2271,0.2364,0.2452,0.2498,0.2549,0.2592,0.2657,0.2748,0.2681,0.2686,0.264,0.2916,0.2537,0.2516,0.2825,0.283,0.2833,0.2838,0,0.2032,0.2093,0.2087,0.2155,0.219,0.2187,0.2237,0.2273,0.2306,0.2388,0.2439,0.2543,0.2535,0.2607,0.2679,0.2747,0.2802,0.2739,0.287,0.2871,0.2499,0.2527,0.2398,0.2362,0.2853,0.2855,0.2857,0,0.2131,0.2141,0.2217,0.2251,0.227,0.2307,0.2377,0.2421,0.2491,0.2524,0.2608,0.2656,0.2756,0.2756,0.2889,0.286,0.2906,0.2926,0.2928,0.2596,0.2522,0.2375,0.2371,0.2883,0.2881,0.2879,0.2877,0,0.2229,0.226,0.2318,0.2333,0.2356,0.2396,0.2424,0.2482,0.2498,0.2625,0.2637,0.2787,0.2833,0.2954,0.2932,0.2974,0.3025,0.3096,0.2783,0.2754,0.2675,0.2628,0.3222,0.3222,0.3222,0.3222,0.3222,0,0.234,0.2397,0.2365,0.2404,0.2448,0.2476,0.2547,0.2581,0.2632,0.262,0.2732,0.2725,0.2896,0.2903,0.2965,0.2833,0.3056,0.2771,0.2741,0.2652,0.2606,0.3106,0.3092,0.3222,0.3222,0.3222,0.3222,0,0.2474,0.2474,0.2506,0.2504,0.25,0.2545,0.2542,0.2564,0.263,0.2614,0.2644,0.2694,0.2668,0.2716,0.284,0.2775,0.2764,0.2675,0.2464,0.2403,0.2436,0.2423,0.2391,0.2378,0.2367,0.2358,0.235,0,0.2544,0.2573,0.2544,0.2511,0.2508,0.2539,0.2528,0.257,0.2532,0.2528,0.2481,0.247,0.236,0.2301,0.2267,0.2228,0.2424,0.2037,0.2076,0.2381,0.2358,0.2362,0.2364,0.1988,0.1978,0.197,0.1963,0,0.2586,0.2584,0.2571,0.2491,0.2459,0.2415,0.2385,0.2337,0.2334,0.2283,0.2147,0.2078,0.1973,0.1815,0.1695,0.1692,0.2028,0.1848,0.2328,0.2132,0.1978,0.196,0.1983,0.1889,0.1897,0.1902,0.1906,0.1909,0.2551,0.2521,0.2445,0.2367,0.2327,0.2198,0.2108,0.2029,0.1902,0.1715,0.1774,0.1583,0.16,0.1281,0.1244,0.1247,0.1403,0.1429,0.1469,0.1515,0.1381,0.1207,0.0946,0.0948,0.095,0.0951,0.0952,0,0.2356,0.2322,0.2275,0.2131,0.2009,0.2042,0.1901,0.1749,0.1496,0.1406,0.1244,0.103,0.0875,0.0934,0.0815,0.0767,0.0954,0.0757,0.1058,0.1125,0.1186,0.1052,0.0522,0.0521,0.052,0.052,0,0,0.2218,0.2089,0.2053,0.1776,0.1699,0.1474,0.1348,0.1174,0.1064,0.0818,0.0703,0.0689,0.0786,0.0594,0.06,0.0544,0.0848,0.0522,0.0859,0.1274,0.1334,0.1542,0.1398,0,0,0,0,0]},{"header":{"parameterUnit":"m.s-1","parameterCategory":2,"la1":30.2991,"la2":30.254,"lo1":-89.0895,"lo2":-89.0444,"dy":0.0017,"dx":0.0017,"nx":28,"ny":28,"refTime":"2024-08-13T21:00:00:Z","depth":"2","parameterNumber":3,"parameterNumberName":"V-component_of_CURRENTS"},"data":[0,0,0,0,0,0,0,0,0,0,0,0,0,0,0,0,0,0,0,0,0,0,0,0,0,0,0,0,0,0,0,0,0,0,0,0,0,0,0,0,0,0,0,0,0,0,0,0,0,0,0,0,0,0,0,0,0,0,0.0055,0.0056,0,0.0135,0.0135,0.0136,0.0103,0.0101,0.0099,0.0098,0.0089,0.009,0.0091,0,0,0,0,0,0,0,0,0,0,0,0,0,-0.018,-0.0175,0.0054,0.0056,0.0057,0.0135,0.0135,0.0136,0.0103,0.0101,0.0099,0.0097,0.0088,0.009,0.0092,0,0,0,0,0,0,0,0,0,0,0,0,0,-0.0088,-0.0174,0.0054,0.0051,0.0051,0.0134,0.0135,0.0137,0.0104,0.0101,0.0098,0.0096,0.0088,0.009,0.0092,0.0158,0,0,0.0098,0.0099,0,0,0,0,0,0,0,0,-0.0093,-0.008,0.005,0.0051,0.0052,0.0108,0.005,0.014,0.0104,0.0082,0.0098,0.0095,0.009,0.0092,0.0111,0.0157,0.0157,0.0098,0.01,0.0101,0.0101,0,0,0,0,0,0,0,-0.01,-0.0084,0.0084,0.0052,0.0053,0.0027,0.0038,0.0066,0.0097,0.0084,0.0082,0.0095,0.0089,0.011,0.0111,0.0157,0.0098,0.01,0.0102,0.0102,0.0203,0.0204,0,0,0,0,0,0,-0.0099,-0.0088,0.0082,0.0087,-0.0027,0.0034,0.0046,0.0091,0.0098,0.0098,0.0097,0.0093,0.0107,0.0108,0.011,0.0137,0.0101,0.0103,0.0104,0.0201,0.0203,0.0204,0,0,0,0,0,0,-0.0104,-0.0083,0.0079,-0.0001,0.0018,0.0042,0.0092,0.0094,0.0091,0.011,0.0106,0.0089,0.0105,0.0107,0.013,0.0138,0.0103,0.0105,0.02,0.0202,0.0204,0.0223,0,0,0,0,0,0,-0.011,-0.0084,-0.0066,0.0001,0.0023,0.0126,0.0095,0.0098,0.0105,0.01,0.0103,0.01,0.0103,0.0127,0.0132,0.014,0.0107,0.0198,0.0201,0.0203,0.0221,0.0226,0.023,0,0,0,0,0,-0.0118,-0.0068,-0.0064,-0.0045,0.0055,0.0127,0.0137,0.014,0.0107,0.0123,0.012,0.0099,0.0147,0.0131,0.0136,0.0144,0.0196,0.02,0.0203,0.0219,0.0225,0.023,0,0,0,0,0,0,-0.0158,-0.0064,-0.006,0.0016,0.0062,0.0122,0.0133,0.0136,0.0149,0.0126,0.0127,0.0127,0.0151,0.0153,0.0135,0.0183,0.0165,0.017,0.0175,0.0181,0.0186,0.015,0.0109,0,0,0,0,0,-0.0154,-0.0097,-0.0023,0.0032,0.0052,0.0086,0.0107,0.0115,0.0143,0.0144,0.0145,0.015,0.0178,0.0179,0.0204,0.0235,0.0235,0.0242,0.0247,0.025,0.0227,0.0269,0.0275,0.0215,0.0215,0.0215,0,0,-0.0158,-0.0098,-0.0069,0.0025,0.0052,0.0086,0.0091,0.0127,0.0141,0.0143,0.0145,0.0169,0.0192,0.0226,0.0235,0.0221,0.027,0.0254,0.0257,0.0231,0.0273,0.0279,0.0284,0.0217,0.0217,0.0216,0,0,-0.0142,-0.0082,-0.0045,-0.0005,0.0046,0.008,0.0086,0.0135,0.0138,0.0167,0.017,0.0197,0.0225,0.0252,0.0267,0.0314,0.0298,0.0318,0.0304,0.0347,0.0351,0.0355,0.0366,0.0371,0.0313,0.0313,0.0313,0,-0.0161,-0.0093,-0.0027,0.0007,0.0023,0.0071,0.0085,0.0122,0.0167,0.0174,0.016,0.0221,0.0237,0.029,0.0298,0.0322,0.0329,0.028,0.0351,0.0355,0.0359,0.0368,0.0373,0.0314,0.0314,0.0314,0.0314,0,-0.0128,-0.0088,-0.0064,-0.0007,0.0025,0.0056,0.0107,0.0132,0.0133,0.0162,0.0203,0.0245,0.0275,0.0296,0.0303,0.0347,0.0338,0.0358,0.0331,0.0366,0.0374,0.0379,0.0316,0.0316,0.0315,0.0315,0,0,-0.0145,-0.006,-0.0063,-0.0047,0.001,0.005,0.0075,0.0125,0.0151,0.0181,0.0215,0.0258,0.0276,0.0294,0.0328,0.0354,0.0392,0.0352,0.0354,0.0349,0.0459,0.0424,0.0425,0.0423,0.0424,0.0425,0.0455,0,-0.0157,-0.0103,-0.007,-0.0041,-0.0009,0.0027,0.0057,0.0105,0.0149,0.0207,0.0249,0.0308,0.0282,0.0317,0.0333,0.0405,0.0404,0.0379,0.0435,0.0436,0.0391,0.043,0.0381,0.04,0.0459,0.046,0.046,0,-0.0145,-0.0112,-0.0084,-0.0039,-0.003,-0.001,0.0045,0.0084,0.0177,0.021,0.0258,0.031,0.0371,0.0352,0.0418,0.0403,0.0403,0.0434,0.0437,0.0391,0.0409,0.0377,0.0407,0.0468,0.0468,0.0467,0.0466,0,-0.0156,-0.0125,-0.0105,-0.0089,-0.0025,-0.0024,0.0001,0.0079,0.0136,0.0235,0.0294,0.0352,0.042,0.0433,0.047,0.0452,0.054,0.0539,0.049,0.0488,0.0447,0.0439,0.0542,0.0542,0.0542,0.0542,0.0542,0,-0.0144,-0.0121,-0.0108,-0.0079,-0.0061,-0.0032,0.0024,0.0065,0.0158,0.0247,0.0299,0.0381,0.0443,0.0503,0.0495,0.0512,0.0557,0.0478,0.0496,0.0453,0.0445,0.0502,0.0497,0.0543,0.0543,0.0543,0.0543,0,-0.009,-0.0089,-0.0053,-0.004,-0.004,-0.0016,0.0047,0.0113,0.0176,0.03,0.0338,0.0436,0.0502,0.054,0.06,0.0562,0.0583,0.0559,0.0485,0.0492,0.0485,0.048,0.0512,0.0511,0.051,0.0509,0.0509,0,-0.0025,-0.0007,-0.0015,-0.0007,0.0005,0.0039,0.0084,0.0134,0.021,0.0333,0.0399,0.0485,0.0545,0.0604,0.0572,0.0554,0.0569,0.0487,0.0433,0.0468,0.0484,0.0481,0.0478,0.0392,0.0391,0.039,0.0389,0,0.0079,0.0052,0.0061,0.0063,0.0081,0.0134,0.0183,0.0238,0.0318,0.0392,0.0481,0.0525,0.0559,0.0537,0.0508,0.0479,0.0492,0.0459,0.0556,0.04,0.0356,0.0371,0.0372,0.0378,0.0379,0.038,0.0381,0.0381,0.0142,0.0137,0.0105,0.0117,0.0149,0.02,0.0224,0.0289,0.0364,0.0432,0.0493,0.052,0.0525,0.0447,0.0431,0.039,0.039,0.0363,0.0367,0.0373,0.0346,0.0303,0.0308,0.0308,0.0309,0.0309,0.031,0,0.0166,0.0143,0.0162,0.0147,0.0192,0.02,0.0272,0.028,0.0326,0.0405,0.0438,0.0407,0.0398,0.04,0.0306,0.0273,0.0271,0.0275,0.0279,0.0288,0.0296,0.0267,0.0207,0.0207,0.0208,0.0208,0,0,0.0167,0.0137,0.0125,0.0166,0.0183,0.0194,0.0215,0.0229,0.0263,0.0284,0.0302,0.036,0.0381,0.0312,0.0277,0.0236,0.0267,0.0223,0.0296,0.031,0.0319,0.0328,0.0289,0,0,0,0,0]}],[{"header":{"parameterUnit":"m.s-1","parameterCategory":2,"la1":30.2991,"la2":30.254,"lo1":-89.0895,"lo2":-89.0444,"dy":0.0017,"dx":0.0017,"nx":28,"ny":28,"refTime":"2024-08-13T21:00:00:Z","depth":"4","parameterNumber":2,"parameterNumberName":"U-component_of_CURRENTS"},"data":[0,0,0,0,0,0,0,0,0,0,0,0,0,0,0,0,0,0,0,0,0,0,0,0,0,0,0,0,0,0,0,0,0,0,0,0,0,0,0,0,0,0,0,0,0,0,0,0,0,0,0,0,0,0,0,0,0,0,-0.046,-0.0461,0,-0.0511,-0.0511,-0.0512,-0.0521,-0.0521,-0.052,-0.052,-0.0417,-0.0414,-0.0412,0,0,0,0,0,0,0,0,0,0,0,0,0,-0.042,-0.0421,-0.046,-0.0461,-0.0461,-0.0511,-0.0511,-0.0512,-0.0521,-0.0521,-0.052,-0.052,-0.0417,-0.0415,-0.0412,0,0,0,0,0,0,0,0,0,0,0,0,0,-0.0451,-0.0421,-0.046,-0.0472,-0.0473,-0.0511,-0.0511,-0.0512,-0.0521,-0.0521,-0.052,-0.052,-0.0418,-0.0415,-0.0411,-0.0402,0,0,-0.0401,-0.0399,0,0,0,0,0,0,0,0,-0.0449,-0.0452,-0.0469,-0.0471,-0.0473,-0.0509,-0.046,-0.0468,-0.0522,-0.0503,-0.052,-0.0519,-0.0434,-0.0429,-0.0442,-0.0397,-0.0393,-0.04,-0.0398,-0.0397,-0.0396,0,0,0,0,0,0,0,-0.0447,-0.045,-0.048,-0.047,-0.0472,-0.0492,-0.0495,-0.0462,-0.0468,-0.0505,-0.0506,-0.0511,-0.0433,-0.0446,-0.0439,-0.0391,-0.04,-0.0397,-0.0395,-0.0394,-0.0202,-0.02,0,0,0,0,0,0,-0.0439,-0.0448,-0.0479,-0.0482,-0.0459,-0.0493,-0.0496,-0.0498,-0.0472,-0.0469,-0.0512,-0.0512,-0.0452,-0.0443,-0.0435,-0.0274,-0.0397,-0.0393,-0.0391,-0.0205,-0.0202,-0.0199,0,0,0,0,0,0,-0.0438,-0.0441,-0.0476,-0.0466,-0.0472,-0.0493,-0.0496,-0.0499,-0.0479,-0.0479,-0.0473,-0.0484,-0.0451,-0.044,-0.0354,-0.0276,-0.0392,-0.0389,-0.0209,-0.0204,-0.02,-0.0046,0,0,0,0,0,0,-0.0436,-0.044,-0.0443,-0.0466,-0.0472,-0.0479,-0.0497,-0.0501,-0.0485,-0.0485,-0.0453,-0.0446,-0.045,-0.0359,-0.0351,-0.0273,-0.0386,-0.0213,-0.0207,-0.0202,-0.0055,-0.0037,-0.0022,0,0,0,0,0,-0.0435,-0.0445,-0.0443,-0.0447,-0.0474,-0.0478,-0.0482,-0.0497,-0.0484,-0.0474,-0.0427,-0.0445,-0.0319,-0.0354,-0.0344,-0.0264,-0.0215,-0.0208,-0.0202,-0.0063,-0.0041,-0.0022,0,0,0,0,0,0,-0.0443,-0.0448,-0.0446,-0.046,-0.0456,-0.0479,-0.0473,-0.0473,-0.0435,-0.0406,-0.0404,-0.0392,-0.0287,-0.0301,-0.034,-0.0195,-0.0271,-0.0262,-0.0168,-0.0147,-0.0131,-0.0197,-0.0383,0,0,0,0,0,-0.0442,-0.044,-0.0446,-0.0453,-0.044,-0.0443,-0.0445,-0.0438,-0.0412,-0.0396,-0.0349,-0.0303,-0.0261,-0.0223,-0.0188,-0.0106,-0.0226,-0.0051,-0.0034,-0.002,-0.0067,-0.0218,-0.0221,-0.0177,-0.0177,-0.0177,0,0,-0.0458,-0.0451,-0.0458,-0.0453,-0.0443,-0.0417,-0.0441,-0.0413,-0.0375,-0.0384,-0.0277,-0.0235,-0.0226,-0.013,-0.0085,-0.0124,-0.0076,-0.0011,0.0001,-0.0056,-0.0212,-0.0217,-0.0222,-0.0172,-0.0173,-0.0174,0,0,-0.0461,-0.0457,-0.0444,-0.0424,-0.039,-0.0383,-0.036,-0.0322,-0.0286,-0.0182,-0.018,-0.0123,-0.0003,-0.0021,-0.0011,0.0106,0.0016,0.0178,0.0214,0.0073,0.0065,0.0057,-0.0036,-0.0054,0.0187,0.0187,0.0187,0,-0.0468,-0.0454,-0.0443,-0.0405,-0.0384,-0.0354,-0.0317,-0.0281,-0.0208,-0.0182,-0.0116,-0.0017,0.0018,0.0033,0.0113,0.0136,0.0068,0.0145,0.0087,0.0076,0.0065,-0.003,-0.0052,0.0195,0.0194,0.0193,0.0193,0,-0.0452,-0.0429,-0.0408,-0.0346,-0.0322,-0.028,-0.0224,-0.016,-0.0074,-0.0048,0.0041,0.0086,0.0116,0.0179,0.021,0.018,0.0166,0.0122,0.0023,0.0068,-0.0031,-0.0057,0.0207,0.0204,0.0202,0.02,0,0,-0.0467,-0.0412,-0.0398,-0.0361,-0.0278,-0.0255,-0.0171,-0.0122,-0.0089,0.0031,0.0043,0.0171,0.0187,0.0193,0.0222,0.0147,0.0077,0.0149,0.0138,0.0034,-0.0188,0.0045,0.0038,0.0043,0.0038,0.0034,-0.0203,0,-0.0441,-0.039,-0.0359,-0.0285,-0.0241,-0.0187,-0.0125,-0.007,0.0001,0.0035,0.0054,0.011,0.0192,0.0239,0.0176,0.0093,0.0007,0.0147,-0.02,-0.0211,-0.0031,0.0014,0.0018,-0.0223,-0.023,-0.0234,-0.0237,0,-0.0405,-0.0377,-0.0316,-0.0251,-0.0225,-0.0161,-0.0085,-0.0027,0.0,0.0055,0.0075,0.0089,0.0054,0.0098,-0.0083,0.0023,-0.0068,-0.0148,-0.0161,-0.0039,-0.0028,-0.0294,-0.0287,-0.0283,-0.0279,-0.0276,-0.0273,0,-0.0403,-0.0335,-0.0289,-0.0258,-0.018,-0.012,-0.0062,-0.0005,0.0041,0.0054,0.0074,0.0013,0.0004,-0.0141,-0.0182,-0.0153,-0.0418,-0.0445,-0.0354,-0.0339,-0.0558,-0.0548,-0.0657,-0.0657,-0.0656,-0.0656,-0.0655,0,-0.0365,-0.0329,-0.027,-0.0234,-0.0163,-0.0094,-0.0018,0.0028,0.0069,0.0083,0.0095,0.0084,-0.005,-0.0165,-0.0256,-0.0326,-0.0493,-0.0359,-0.0391,-0.047,-0.0448,-0.0573,-0.056,-0.0664,-0.0663,-0.0661,-0.0659,0,-0.0345,-0.032,-0.026,-0.018,-0.0149,-0.0073,0.0032,0.0064,0.0125,0.0125,0.0136,0.0102,0.002,-0.0106,-0.0354,-0.0379,-0.0521,-0.0527,-0.056,-0.059,-0.0347,-0.0324,-0.05,-0.0493,-0.0488,-0.0484,-0.048,0,-0.0338,-0.0304,-0.0228,-0.0182,-0.0121,-0.0023,0.0024,0.0101,0.0115,0.0146,0.0117,0.0091,0.0063,-0.0111,-0.0229,-0.0404,-0.0401,-0.051,-0.0447,-0.0321,-0.0337,-0.032,-0.0304,-0.0472,-0.0471,-0.0469,-0.0468,0,-0.0314,-0.0279,-0.0235,-0.0159,-0.0082,-0.0003,0.0069,0.0084,0.0136,0.0128,0.0143,0.0136,0.0062,-0.0038,-0.0118,-0.026,-0.0457,-0.0457,-0.047,-0.0412,-0.029,-0.0307,-0.0297,-0.045,-0.0453,-0.0454,-0.0455,0,-0.028,-0.0265,-0.0211,-0.0124,-0.0035,0.0065,0.0082,0.0116,0.0155,0.0155,0.0137,0.0123,0.0062,0.0037,-0.0071,-0.0113,-0.014,-0.0218,-0.0245,-0.0265,-0.006,0.0138,0.0069,0,0,0,0,0,-0.0232,-0.0229,-0.0186,-0.0082,0.0014,0.0073,0.0127,0.0124,0.0099,0.0118,0.0158,0.0118,0.0115,0.0087,0.0085,0.0025,-0.0156,0.0019,-0.0262,-0.0351,-0.0371,-0.014,0,0,0,0,0,0,-0.0192,-0.0179,-0.0191,-0.0032,0.004,0.0144,0.0199,0.0174,0.0181,0.0145,0.0137,0.0108,0.0086,0.0118,0.008,0.0069,-0.011,-0.0008,-0.0008,-0.0339,-0.0358,-0.0374,-0.0143,0,0,0,0,0]},{"header":{"parameterUnit":"m.s-1","parameterCategory":2,"la1":30.2991,"la2":30.254,"lo1":-89.0895,"lo2":-89.0444,"dy":0.0017,"dx":0.0017,"nx":28,"ny":28,"refTime":"2024-08-13T21:00:00:Z","depth":"4","parameterNumber":3,"parameterNumberName":"V-component_of_CURRENTS"},"data":[0,0,0,0,0,0,0,0,0,0,0,0,0,0,0,0,0,0,0,0,0,0,0,0,0,0,0,0,0,0,0,0,0,0,0,0,0,0,0,0,0,0,0,0,0,0,0,0,0,0,0,0,0,0,0,0,0,0,0.0282,0.0282,0,0.0294,0.0294,0.0295,0.0358,0.036,0.0361,0.0363,0.0304,0.0301,0.0298,0,0,0,0,0,0,0,0,0,0,0,0,0,0.0264,0.0264,0.0282,0.0282,0.0282,0.0294,0.0294,0.0295,0.0358,0.036,0.0362,0.0364,0.0305,0.0301,0.0298,0,0,0,0,0,0,0,0,0,0,0,0,0,0.0273,0.0264,0.0282,0.0315,0.0319,0.0294,0.0294,0.0295,0.0358,0.036,0.0362,0.0365,0.0306,0.0302,0.0297,0.0223,0,0,0.0284,0.0282,0,0,0,0,0,0,0,0,0.0273,0.0274,0.031,0.0313,0.0317,0.0327,0.0267,0.0267,0.0357,0.0343,0.0363,0.0366,0.0303,0.0299,0.0297,0.0221,0.0218,0.0283,0.028,0.0278,0.0277,0,0,0,0,0,0,0,0.0272,0.0273,0.0287,0.031,0.0314,0.0313,0.0317,0.0267,0.0308,0.0344,0.0349,0.035,0.0305,0.0302,0.0296,0.0217,0.0283,0.0279,0.0276,0.0275,0.0112,0.011,0,0,0,0,0,0,0.0271,0.0273,0.0286,0.0287,0.03,0.0312,0.0317,0.0321,0.0311,0.0312,0.0348,0.0353,0.0308,0.0301,0.0294,0.0277,0.0279,0.0274,0.0272,0.0113,0.0112,0.011,0,0,0,0,0,0,0.027,0.0272,0.0286,0.028,0.0282,0.031,0.0315,0.032,0.0356,0.0314,0.0315,0.0382,0.031,0.0301,0.0266,0.0273,0.0272,0.0268,0.0115,0.0113,0.0111,0.0197,0,0,0,0,0,0,0.027,0.0272,0.0298,0.028,0.0282,0.0282,0.0313,0.0319,0.0351,0.0358,0.0342,0.0338,0.0311,0.0273,0.0261,0.0267,0.0265,0.0117,0.0114,0.0111,0.0196,0.0198,0.0199,0,0,0,0,0,0.0269,0.0282,0.0299,0.0302,0.031,0.0282,0.0283,0.031,0.0351,0.0354,0.0345,0.034,0.0245,0.0268,0.0255,0.0259,0.0119,0.0115,0.0112,0.0196,0.0198,0.0199,0,0,0,0,0,0,0.0284,0.0289,0.0308,0.0323,0.0312,0.0294,0.0323,0.0326,0.0326,0.0356,0.0321,0.0312,0.0279,0.0244,0.027,0.0196,0.0179,0.0173,0.0248,0.0249,0.025,0.0282,0.0261,0,0,0,0,0,0.0298,0.0325,0.0304,0.0326,0.0331,0.0335,0.0341,0.0348,0.0335,0.0343,0.0324,0.0294,0.0243,0.0233,0.0179,0.0144,0.0122,0.0133,0.0134,0.0136,0.0148,0.0068,0.0065,0.0098,0.0098,0.0098,0,0,0.031,0.0322,0.0337,0.0334,0.0349,0.0339,0.0347,0.0364,0.0358,0.0329,0.0338,0.0297,0.0229,0.0191,0.0173,0.0175,0.0127,0.0132,0.0135,0.0145,0.0064,0.0061,0.0059,0.0095,0.0096,0.0096,0,0,0.0335,0.0364,0.0391,0.038,0.0396,0.038,0.0389,0.0379,0.0391,0.0378,0.0342,0.0304,0.026,0.0196,0.0161,0.0129,0.0128,0.0122,0.0173,0.0095,0.0093,0.009,0.0126,0.0126,0.0135,0.0136,0.0136,0,0.0356,0.0385,0.0389,0.04,0.041,0.04,0.0411,0.0393,0.0369,0.0369,0.0399,0.0302,0.0257,0.0169,0.0179,0.0136,0.0137,0.0184,0.0102,0.0098,0.0094,0.013,0.0129,0.0139,0.0139,0.0139,0.0138,0,0.0375,0.0412,0.0429,0.0446,0.0441,0.0453,0.0422,0.0425,0.0454,0.0429,0.0389,0.0321,0.0276,0.024,0.0221,0.0152,0.0182,0.0109,0.0113,0.0097,0.0136,0.0133,0.0145,0.0143,0.0142,0.0141,0,0,0.0391,0.0438,0.0456,0.0481,0.0478,0.047,0.0469,0.0448,0.0457,0.0431,0.0418,0.0344,0.0336,0.0292,0.023,0.0172,0.0175,0.0164,0.0158,0.0231,0.0104,0.0066,0.006,0.0099,0.0097,0.0096,0.0169,0,0.042,0.0474,0.0481,0.0516,0.0532,0.0525,0.0524,0.05,0.0492,0.046,0.0384,0.0346,0.034,0.0337,0.0277,0.0161,0.0161,0.0168,0.008,0.008,0.007,0.005,0.009,0.0167,0.0166,0.0166,0.0165,0,0.0428,0.0474,0.0542,0.0576,0.0589,0.061,0.0628,0.062,0.0553,0.0555,0.0504,0.0429,0.0341,0.0332,0.0212,0.0228,0.0213,0.0141,0.014,0.0067,0.0032,0.0162,0.016,0.016,0.0161,0.0161,0.0161,0,0.0439,0.0501,0.058,0.0589,0.0623,0.0677,0.0703,0.0677,0.0658,0.0614,0.0581,0.0479,0.0401,0.0341,0.0241,0.0241,0.0103,0.0066,0.0035,0.0038,0.002,0.002,0.0019,0.0018,0.0018,0.0018,0.0018,0,0.0439,0.0497,0.0616,0.065,0.0716,0.0751,0.08,0.08,0.0773,0.0694,0.0652,0.053,0.0392,0.0276,0.0249,0.014,0.0128,0.0057,0.0026,0.0063,0.0067,0.0023,0.0023,0.0021,0.002,0.002,0.0019,0,0.0418,0.0506,0.0574,0.0686,0.0723,0.0783,0.0841,0.0835,0.0859,0.0745,0.0725,0.0548,0.0396,0.0297,0.0143,0.0118,0.0036,0.0021,0.0148,0.0122,0.0051,0.0054,0.0006,0.0005,0.0004,0.0003,0.0002,0,0.0413,0.0456,0.0593,0.063,0.0699,0.0792,0.0817,0.0871,0.0817,0.0711,0.0599,0.0453,0.0324,0.014,0.004,0.0018,-0.0005,0.0033,-0.0017,0.0061,0.0037,0.0042,0.0046,0.0,0.0,-0.0,-0.0001,0,0.036,0.0438,0.0496,0.0581,0.0648,0.0678,0.0718,0.0693,0.0685,0.0674,0.0488,0.0388,0.019,0.0058,0.0047,0.0012,0.0033,0.0021,0.0023,-0.0024,0.0053,0.0031,0.0037,-0.0005,-0.0004,-0.0004,-0.0003,0,0.032,0.0336,0.0424,0.0491,0.0542,0.0552,0.0603,0.0557,0.0544,0.0456,0.0364,0.0242,0.0143,0.0052,0.0017,-0.0004,-0.002,0.0011,0.0013,0.0017,-0.0032,0.0065,-0.0012,0,0,0,0,0,0.026,0.0269,0.0308,0.0377,0.0425,0.0457,0.0487,0.0526,0.051,0.038,0.0402,0.0242,0.0135,0.0052,0.0022,-0.0023,-0.0028,-0.0058,0.0009,-0.0027,-0.0022,-0.009,0,0,0,0,0,0,0.0211,0.0245,0.0272,0.0269,0.0289,0.0319,0.0348,0.0358,0.0299,0.0289,0.0223,0.0227,0.011,0.0135,0.0005,-0.0009,0.0035,-0.0105,-0.0105,-0.0029,-0.0025,-0.0021,-0.009,0,0,0,0,0]}]]